sat.trackr.live / text

‹ back to catalog

STARLINK-37581

NORAD 69366 · 2026-123P

PAYLOAD ACTIVE UNKNOWN

§ Identity

Operator
Country
US
Launch date
2026-06-04
Launch site
AFETR
Launch vehicle
Mass (kg)
RCS (m²)

Purposes: comms

External: N2YO · Heavens-Above · Gunter

§ Orbital elements

Epoch: 2026-09-20T00:11:01.119840Z

Period
93.85 min
Inclination
53.1594°
Eccentricity
0.0001572
Mean motion
15.34405313 rev/d
Perigee alt
461.6 km
Apogee alt
463.8 km
Semi-major
6,840.8 km
B*
7.2869e-4
RAAN
144.0679°
Arg perigee
68.9547°
Mean anomaly
291.1623°
Rev number
1,679

§ Raw data

STARLINK-375811 69366U 26123P   26263.00765185  .00024328  00000+0  72869-3 0  99982 69366  53.1594 144.0679 0001572  68.9547 291.1623 15.34405313 16790

JSON: /api/v1/satellites/69366 · /tle

For live sub-satellite position, see the globe view (requires WebGL).

§ Visibility from observer

Set your observer location to see the next 7 days of passes ≥ 10°. The values pass through the URL so the page stays shareable.

No JS? Fill the form by hand. The geolocation button needs JavaScript.